Weather History for Cross City, FL

Change the Weather History Date:

Friday, March 14, 2014

  Actual Average Record
Temperature  
Mean Temperature 53 °F 62 °F  
Max Temperature 74 °F 76 °F 84 °F (2012)
Min Temperature 31 °F 48 °F 31 °F (2014)
Degree Days  
Heating Degree Days 12 4  
Month to date heating degree days 120 79  
Since 1 July heating degree days 1115 1199  
Cooling Degree Days 0 1  
Month to date cooling degree days 3 14  
Year to date cooling degree days 38 41  
Growing Degree Days 2 (Base 50)    
Moisture  
Dew Point 37 °F    
Average Humidity 62    
Maximum Humidity 96    
Minimum Humidity 27    
Precipitation  
Precipitation 0.00 in 0.14 in 1.46 in (1999)
Month to date precipitation 1.29 1.88  
Year to date precipitation 11.44 9.19  
Sea Level Pressure  
Sea Level Pressure 30.25 in    
Wind  
Wind Speed 3 mph (SSW)    
Max Wind Speed 12 mph    
Max Gust Speed 16 mph    
T = Trace of Precipitation, MM = Missing Value Source: NWS Daily Summary

Daily Weather History Graph

Daily Weather History Graph

Search for Another Location

Airport:

Trip Planner

Search our weather history database for the weather conditions in past years. The results will help you decide how hot, cold, wet, or windy it might be!

Date:

Astronomy

Mar. 14, 2014 Rise Set
Actual Time 7:43 AM EDT 7:40 PM EDT
Civil Twilight 7:19 AM EDT 8:03 PM EDT
Nautical Twilight 6:51 AM EDT 8:31 PM EDT
Astronomical Twilight 6:24 AM EDT 8:59 PM EDT
Moon 6:06 PM EDT (3/14) 6:16 AM EDT (3/14)
Length of Visible Light 12h 44m
Length of Day
11h 56m
Waxing Gibbous, 96% of the Moon is Illuminated
Mar 14
Waxing Gibbous
Mar 16
Full
Mar 23
Last Quarter
Mar 30
New
Apr 7
First Quarter

Hourly Weather History & Observations

Time (EDT) Temp. Dew Point Humidity Pressure Visibility Wind Dir Wind Speed Gust Speed Precip Events Conditions
12:53 AM 37.9 °F 33.1 °F 83% 30.25 in - Calm Calm - N/A   Unknown
1:53 AM 37.0 °F 34.0 °F 89% 30.26 in - Calm Calm - N/A   Unknown
2:53 AM 35.1 °F 32.0 °F 89% 30.26 in - Calm Calm - N/A   Unknown
3:53 AM 34.0 °F 32.0 °F 92% 30.24 in - Calm Calm - N/A   Unknown
4:53 AM 33.1 °F 30.0 °F 89% 30.25 in - Calm Calm - N/A   Unknown
5:53 AM 32.0 °F 30.0 °F 92% 30.26 in - Calm Calm - N/A   Unknown
6:53 AM 30.9 °F 28.9 °F 92% 30.28 in - Calm Calm - N/A   Unknown
7:53 AM 30.9 °F 28.0 °F 89% 30.29 in - Calm Calm - N/A   Unknown
8:53 AM 42.1 °F 37.9 °F 85% 30.30 in - Calm Calm - N/A   Unknown
9:53 AM 55.0 °F 36.0 °F 49% 30.32 in - East 3.5 mph - N/A   Unknown
10:53 AM 61.0 °F 33.1 °F 35% 30.32 in - East 8.1 mph - N/A   Unknown
11:53 AM 64.0 °F 34.0 °F 33% 30.31 in - Variable 4.6 mph - N/A   Unknown
12:53 PM 66.0 °F 35.1 °F 32% 30.32 in - Variable 5.8 mph - N/A   Unknown
1:53 PM 69.1 °F 35.1 °F 29% 30.28 in - SE 4.6 mph - N/A   Unknown
2:53 PM 72.0 °F 37.0 °F 28% 30.24 in - South 6.9 mph - N/A   Unknown
3:53 PM 72.0 °F 36.0 °F 27% 30.20 in - Calm Calm - N/A   Unknown
4:53 PM 73.0 °F 39.9 °F 30% 30.18 in - WSW 8.1 mph - N/A   Unknown
5:53 PM 71.1 °F 43.0 °F 36% 30.17 in - WSW 9.2 mph - N/A   Unknown
6:53 PM 68.0 °F 45.0 °F 43% 30.18 in - WSW 8.1 mph - N/A   Unknown
7:53 PM 62.1 °F 46.0 °F 56% 30.19 in - West 4.6 mph - N/A   Unknown
8:53 PM 55.9 °F 46.0 °F 69% 30.19 in - Calm Calm - N/A   Unknown
9:53 PM 51.1 °F 44.1 °F 77% 30.21 in - Calm Calm - N/A   Unknown
10:53 PM 48.9 °F 45.0 °F 86% 30.20 in - Calm Calm - N/A   Unknown
11:53 PM 46.9 °F 43.0 °F 86% 30.20 in - Calm Calm - N/A   Unknown